(178955) = 2001 QH180

Discovered at Palomar on 2001-08-25 by NEAT.

Orbit

Orbit type: Main Belt

Note: WebGL enabled browser required.

epoch2024-03-31.0
epoch JD2460400.5
perihelion date2023-05-05.49096
perihelion JD2460069.99096
argument of perihelion (°)343.62467
ascending node (°)15.24924
inclination (°)12.49761
eccentricity0.2037527
perihelion distance (AU)2.1099301
Tisserand w.r.t. Jupiter3.3
ΔV w.r.t. Earth (km/sec)9.9
semimajor axis (AU)2.6498425
mean anomaly (°)75.51915
mean daily motion (°/day)0.22849340
aphelion distance (AU)3.190
period (years)4.31
P-vector [x]0.99804983
P-vector [y]0.01215015
P-vector [z]-0.06122840
Q-vector [x]0.02563220
Q-vector [y]0.81459459
Q-vector [z]0.57946410
absolute magnitude15.67
phase slope0.15
uncertainty0
referenceMPEC 2024-F62
observations used701
oppositions16
arc length (days)8249
first opposition used2001
last opposition used2024
residual rms (arc-secs)0.71
perturbers coarse indicatorM-v
perturbers precise indicator003Ek
first observation date used2001-08-19.0
last observation date used2024-03-20.0
computer nameMPCLINUX
JD of orbit computation2456966.883794
perihelion JD uncertainty (days)3.7273E-05
argument of perihelion uncertainty (°)1.9510E-05
ascending node uncertainty (°)1.6093E-05
inclination uncertainty (°)6.0346E-06
eccentricity uncertainty 5.7620E-08
perihelion distance uncertainty (AU)1.5226E-07
Minimum Orbit Intersection Distances (in AU)
for orbit epoch: 2460400.5, reference: E2024-F62
Mercury1.7401
Venus1.3833
Earth1.11024
Mars0.7142
Jupiter2.25992
Saturn6.21843
Uranus15.27
Neptune27.3516

Observations

720 total observations over interval: 2001 08 19.33955 – 2024 03 20.124191
These data are available for download (format description).

Date (UT) J2000 RA J2000 Dec Magn Location Ref
2001 08 19.33955 00 13 46.80 -11 15 46.8 18.4   704 – Lincoln Laboratory ETS, New Mexico MPS 37827
2001 08 19.35253 00 13 46.33 -11 15 46.6 18.2   704 – Lincoln Laboratory ETS, New Mexico MPS 37827
2001 08 19.36530 00 13 45.92 -11 15 45.8 18.6   704 – Lincoln Laboratory ETS, New Mexico MPS 37827
2001 08 19.37794 00 13 45.50 -11 15 45.6 18.1   704 – Lincoln Laboratory ETS, New Mexico MPS 37827
2001 08 19.39054 00 13 45.10 -11 15 45.6 18.3   704 – Lincoln Laboratory ETS, New Mexico MPS 37827
2001 08 25.29695 00 10 23.80 -11 13 04.3 18.1   644 – Palomar Mountain/NEAT MPS 34800
2001 08 25.31754 00 10 22.95 -11 13 03.6 17.9   644 – Palomar Mountain/NEAT MPS 34800
2001 08 25.34299 00 10 21.90 -11 13 03.2 18.4   644 – Palomar Mountain/NEAT MPS 34800
2001 08 31.29939 00 05 56.04 -11 10 21.2 18.7   644 – Palomar Mountain/NEAT MPS 34800
2001 08 31.32012 00 05 54.99 -11 10 20.1 18.5   644 – Palomar Mountain/NEAT MPS 34800
2001 08 31.34156 00 05 53.88 -11 10 19.7 17.9   644 – Palomar Mountain/NEAT MPS 34800
2001 09 12.33392 23 54 33.53 -10 59 32.3 18.0   704 – Lincoln Laboratory ETS, New Mexico MPS 34800
2001 09 12.34902 23 54 32.53 -10 59 31.1 17.8   704 – Lincoln Laboratory ETS, New Mexico MPS 34800
2001 09 12.36337 23 54 31.60 -10 59 29.7 17.9   704 – Lincoln Laboratory ETS, New Mexico MPS 34800
2001 09 12.37787 23 54 30.64 -10 59 28.9 18.0   704 – Lincoln Laboratory ETS, New Mexico MPS 34800
2001 09 19.17332 23 47 19.38 -10 47 03.8 17.8 R 699 – Lowell Observatory-LONEOS MPS 36072
2001 09 19.19205 23 47 18.15 -10 47 02.2   699 – Lowell Observatory-LONEOS MPS 36072
2001 09 19.21087 23 47 16.90 -10 46 59.4   699 – Lowell Observatory-LONEOS MPS 36072
2001 09 19.22979 23 47 15.64 -10 46 56.8   699 – Lowell Observatory-LONEOS MPS 36072
2001 09 19.25631 23 47 13.84 -10 46 52.9 17.8   704 – Lincoln Laboratory ETS, New Mexico MPS 36072
2001 09 19.27077 23 47 12.86 -10 46 51.5 18.0   704 – Lincoln Laboratory ETS, New Mexico MPS 36072
2001 09 19.28688 23 47 11.82 -10 46 48.7 18.0   704 – Lincoln Laboratory ETS, New Mexico MPS 36072
2001 09 19.30321 23 47 10.71 -10 46 46.7 18.0   704 – Lincoln Laboratory ETS, New Mexico MPS 36072
2001 09 19.31294 23 47 10.13 -10 46 45.1 18.1   644 – Palomar Mountain/NEAT MPS 36072
2001 09 19.31834 23 47 09.70 -10 46 45.1 18.3   704 – Lincoln Laboratory ETS, New Mexico MPS 36072
2001 09 19.33415 23 47 08.73 -10 46 42.5 18.2   644 – Palomar Mountain/NEAT MPS 36072
2001 09 19.35593 23 47 07.26 -10 46 39.3 19.2   644 – Palomar Mountain/NEAT MPS 36072
2001 09 21.25096 23 45 06.40 -10 42 02.4 18.1   704 – Lincoln Laboratory ETS, New Mexico MPS 36072
2001 09 21.26598 23 45 05.38 -10 42 00.1 18.4   704 – Lincoln Laboratory ETS, New Mexico MPS 36072
2001 09 21.28118 23 45 04.40 -10 41 57.5 18.2   704 – Lincoln Laboratory ETS, New Mexico MPS 36072
2001 09 21.29568 23 45 03.41 -10 41 55.2 18.6   704 – Lincoln Laboratory ETS, New Mexico MPS 36072
2001 09 21.31003 23 45 02.49 -10 41 53.5 18.7   704 – Lincoln Laboratory ETS, New Mexico MPS 36072
2001 09 27.18853 23 38 56.90 -10 24 01.3 18.9   644 – Palomar Mountain/NEAT MPS 36072
2001 09 27.20929 23 38 55.58 -10 23 56.5 18.9   644 – Palomar Mountain/NEAT MPS 36072
2001 09 27.23079 23 38 54.24 -10 23 52.1 18.8   644 – Palomar Mountain/NEAT MPS 36072
2001 10 11.18597 23 26 45.90 -09 19 01.4 18.7   704 – Lincoln Laboratory ETS, New Mexico MPS 37827
2001 10 11.20250 23 26 45.16 -09 18 55.5 18.7   704 – Lincoln Laboratory ETS, New Mexico MPS 37827
2001 10 11.21873 23 26 44.44 -09 18 50.9 18.5   704 – Lincoln Laboratory ETS, New Mexico MPS 37827
2001 10 11.23495 23 26 43.76 -09 18 44.3 18.4   704 – Lincoln Laboratory ETS, New Mexico MPS 37827
2001 10 11.25120 23 26 43.01 -09 18 39.4 18.6   704 – Lincoln Laboratory ETS, New Mexico MPS 37827
2001 10 13.16558 23 25 26.09 -09 07 18.8 18.3   704 – Lincoln Laboratory ETS, New Mexico MPS 37827
2001 10 13.18083 23 25 25.51 -09 07 13.8 18.1   704 – Lincoln Laboratory ETS, New Mexico MPS 37827
2001 10 13.19706 23 25 24.83 -09 07 08.3 18.6   704 – Lincoln Laboratory ETS, New Mexico MPS 37827
2001 10 13.22908 23 25 23.60 -09 06 57.6 18.7   704 – Lincoln Laboratory ETS, New Mexico MPS 37827
2001 10 17.15799 23 23 07.07 -08 42 00.2 18.9   644 – Palomar Mountain/NEAT MPS 40315
2001 10 17.17880 23 23 06.36 -08 41 52.1 19.3   644 – Palomar Mountain/NEAT MPS 40315
2001 10 17.19969 23 23 05.68 -08 41 43.8 19.6   644 – Palomar Mountain/NEAT MPS 40315
2001 10 23.10095 23 20 36.97 -08 00 06.9 19.0   704 – Lincoln Laboratory ETS, New Mexico MPS 40315
2001 10 23.13517 23 20 36.26 -07 59 52.2 19.1   704 – Lincoln Laboratory ETS, New Mexico MPS 40315
2001 10 23.15176 23 20 35.89 -07 59 45.6 18.8   704 – Lincoln Laboratory ETS, New Mexico MPS 40315
2001 10 23.16839 23 20 35.54 -07 59 38.2 18.8   704 – Lincoln Laboratory ETS, New Mexico MPS 40315
2001 10 23.19152 23 20 35.06 -07 59 26.3 18.5 R 699 – Lowell Observatory-LONEOS MPS 40315
2001 10 23.21504 23 20 34.60 -07 59 17.0   699 – Lowell Observatory-LONEOS MPS 40315
2001 10 23.23845 23 20 34.07 -07 59 07.4   699 – Lowell Observatory-LONEOS MPS 40315
2001 10 23.26190 23 20 33.57 -07 58 55.6   699 – Lowell Observatory-LONEOS MPS 40315
2001 10 24.08584 23 20 18.97 -07 52 44.5 18.0   704 – Lincoln Laboratory ETS, New Mexico MPS 40315
2001 10 24.10249 23 20 18.66 -07 52 37.0 18.6   704 – Lincoln Laboratory ETS, New Mexico MPS 40315
2001 10 24.11953 23 20 18.32 -07 52 29.3 19.0   704 – Lincoln Laboratory ETS, New Mexico MPS 40315
2001 10 24.13613 23 20 17.90 -07 52 21.2 19.0   704 – Lincoln Laboratory ETS, New Mexico MPS 40315
2001 11 02.15943 23 19 03.84 -06 39 13.1 19.6   644 – Palomar Mountain/NEAT MPS 40315
2001 11 02.18017 23 19 03.81 -06 39 02.0 18.9   644 – Palomar Mountain/NEAT MPS 40315
2001 11 02.20154 23 19 03.76 -06 38 50.9 19.0   644 – Palomar Mountain/NEAT MPS 40315
2003 01 25.278660 09 10 43.757 +34 22 59.27 19.82 V 645 – Apache Point-Sloan Digital Sky Survey MPS 136908
2003 01 25.282132 09 10 43.519 +34 23 00.02 20.45   645 – Apache Point-Sloan Digital Sky Survey MPS 136908
2004 03 16.42000 13 26 07.49 -08 53 56.9 20.9 V 691 – Steward Observatory, Kitt Peak-Spacewatch MPS 136479
2004 03 16.44781 13 26 06.25 -08 53 54.9 21.2 V 691 – Steward Observatory, Kitt Peak-Spacewatch MPS 136479
2004 03 16.47460 13 26 05.04 -08 53 53.2 20.9 V 691 – Steward Observatory, Kitt Peak-Spacewatch MPS 136479
2005 06 17.71405 20 32 06.52 -39 31 39.2 18.8 R E12 – Siding Spring Survey MPS 136479
2005 06 17.72260 20 32 06.32 -39 31 42.8 20.8 R E12 – Siding Spring Survey MPS 136479
2005 06 17.73116 20 32 06.12 -39 31 45.9 19.9 R E12 – Siding Spring Survey MPS 136479
2005 07 04.54036 20 21 39.60 -41 20 37.1 18.6 V E12 – Siding Spring Survey MPS 137398
2005 07 04.54818 20 21 39.24 -41 20 40.0 19.1 V E12 – Siding Spring Survey MPS 137398
2005 07 04.55604 20 21 38.77 -41 20 42.0 18.7 V E12 – Siding Spring Survey MPS 137398
2005 07 04.56390 20 21 38.34 -41 20 45.3 18.7 V E12 – Siding Spring Survey MPS 137398
2006 12 26.25327 06 52 10.77 +42 33 01.3 19.0 V 703 – Catalina Sky Survey MPS 191842
2006 12 26.26362 06 52 09.94 +42 33 02.9 19.2 V 703 – Catalina Sky Survey MPS 191842
2006 12 26.27392 06 52 09.15 +42 33 04.1 18.9 V 703 – Catalina Sky Survey MPS 191842
2006 12 26.28429 06 52 08.29 +42 33 05.9 19.1 V 703 – Catalina Sky Survey MPS 191842
2007 01 17.16069 06 25 14.59 +42 24 38.3 19.6 R 644 – Palomar Mountain/NEAT MPS 196962
2007 01 17.18148 06 25 13.28 +42 24 35.0 19.8 R 644 – Palomar Mountain/NEAT MPS 196962
2007 01 17.20355 06 25 11.85 +42 24 31.4 19.3 R 644 – Palomar Mountain/NEAT MPS 196962
2008 02 07.42030 12 28 35.83 +04 08 49.1 20.6 V G96 – Mt. Lemmon Survey MPS 236139
2008 02 07.42691 12 28 35.72 +04 08 49.9 20.6 V G96 – Mt. Lemmon Survey MPS 236139
2008 02 07.43351 12 28 35.58 +04 08 50.1 21.1 V G96 – Mt. Lemmon Survey MPS 236139
2008 02 07.44009 12 28 35.47 +04 08 50.9 20.3 V G96 – Mt. Lemmon Survey MPS 236139
2008 02 29.30058 12 16 15.74 +05 01 37.5   691 – Steward Observatory, Kitt Peak-Spacewatch MPS 239317
2008 02 29.31820 12 16 14.91 +05 01 40.6   691 – Steward Observatory, Kitt Peak-Spacewatch MPS 239317
2008 02 29.33582 12 16 14.08 +05 01 43.9   691 – Steward Observatory, Kitt Peak-Spacewatch MPS 239317
